| time (UTC) | temp F | wind direction | speed knots | gust knots | rain 1hr in | rain 24hr in | rain mn in | humidity % | barometer mb |
| 20260503021154 | 51 | 263 | 0.0 | 0.0 | 0.00 | 0.01 | 0.01 | 50 | 1023.6 |
| 20260503020647 | 51 | 263 | 0.0 | 0.0 | 0.00 | 0.01 | 0.01 | 49 | 1023.6 |
| 20260503020139 | 52 | 263 | 0.0 | 0.0 | 0.00 | 0.01 | 0.01 | 47 | 1023.5 |
| 20260503015651 | 52 | 263 | 0.0 | 0.0 | 0.00 | 0.05 | 0.01 | 43 | 1023.5 |
| 20260503015148 | 53 | 263 | 0.0 | 0.0 | 0.00 | 0.05 | 0.01 | 44 | 1023.5 |
| 20260503014640 | 53 | 263 | 0.0 | 0.0 | 0.00 | 0.05 | 0.01 | 42 | 1023.5 |
| 20260503014134 | 54 | 263 | 0.0 | 0.0 | 0.00 | 0.05 | 0.01 | 43 | 1023.4 |
| 20260503013627 | 54 | 263 | 0.0 | 0.0 | 0.00 | 0.05 | 0.01 | 38 | 1023.4 |
| 20260503013121 | 55 | 263 | 0.0 | 0.0 | 0.00 | 0.05 | 0.01 | 38 | 1023.4 |
| 20260503012636 | 55 | 263 | 0.0 | 0.0 | 0.00 | 0.05 | 0.01 | 37 | 1023.3 |
| 20260503012128 | 56 | 263 | 0.0 | 0.0 | 0.00 | 0.05 | 0.01 | 35 | 1023.3 |
| 20260503011621 | 56 | 263 | 0.0 | 0.0 | 0.00 | 0.05 | 0.01 | 34 | 1023.2 |
| 20260503011135 | 56 | 263 | 0.0 | 0.0 | 0.00 | 0.05 | 0.01 | 34 | 1023.3 |
| 20260503010632 | 57 | 263 | 0.0 | 0.0 | 0.00 | 0.05 | 0.01 | 35 | 1023.2 |
| 20260503010145 | 57 | 263 | 0.0 | 0.0 | 0.00 | 0.11 | 0.01 | 34 | 1023.2 |
| 20260503005657 | 58 | 263 | 0.0 | 0.0 | 0.00 | 0.11 | 0.01 | 30 | 1023.2 |
| 20260503005130 | 58 | 263 | 0.0 | 0.0 | 0.00 | 0.11 | 0.01 | 27 | 1023.2 |
| 20260503004623 | 58 | 263 | 0.0 | 1.7 | 0.00 | 0.11 | 0.01 | 28 | 1023.2 |
| 20260503004156 | 59 | 263 | 0.0 | 1.7 | 0.00 | 0.11 | 0.01 | 28 | 1023.2 |
| 20260503003628 | 59 | 306 | 0.0 | 2.6 | 0.00 | 0.11 | 0.01 | 28 | 1023.2 |
| 20260503003122 | 59 | 311 | 0.9 | 2.6 | 0.00 | 0.11 | 0.01 | 26 | 1023.1 |
| 20260503002635 | 59 | 302 | 0.9 | 2.6 | 0.00 | 0.11 | 0.01 | 26 | 1023.1 |
| 20260503002149 | 59 | 292 | 0.9 | 2.6 | 0.00 | 0.11 | 0.01 | 26 | 1023.1 |
| 20260503001639 | 60 | 40 | 0.9 | 6.1 | 0.00 | 0.11 | 0.01 | 26 | 1023.2 |
| 20260503001153 | 60 | 157 | 2.6 | 6.1 | 0.00 | 0.11 | 0.01 | 26 | 1023.2 |
| 20260503000631 | 60 | 92 | 1.7 | 5.2 | 0.00 | 0.11 | 0.01 | 25 | 1023.2 |
| 20260503000127 | 60 | 186 | 1.7 | 5.2 | 0.00 | 0.11 | 0.01 | 25 | 1023.2 |
| 20260502235701 | 60 | 150 | 0.0 | 2.6 | 0.00 | 0.11 | 0.01 | 26 | 1023.2 |
| 20260502235156 | 59 | 150 | 0.9 | 4.3 | 0.00 | 0.11 | 0.01 | 26 | 1023.2 |
| 20260502234631 | 60 | 36 | 1.7 | 6.1 | 0.00 | 0.11 | 0.01 | 25 | 1023.2 |
| 20260502234126 | 60 | 153 | 1.7 | 5.2 | 0.00 | 0.11 | 0.01 | 26 | 1023.2 |
| 20260502233621 | 60 | 159 | 2.6 | 4.3 | 0.00 | 0.11 | 0.01 | 26 | 1023.2 |
| 20260502233136 | 60 | 153 | 1.7 | 5.2 | 0.00 | 0.11 | 0.01 | 25 | 1023.2 |
| 20260502232631 | 59 | 182 | 1.7 | 5.2 | 0.00 | 0.11 | 0.01 | 25 | 1023.2 |
| 20260502232128 | 59 | 145 | 2.6 | 4.3 | 0.00 | 0.11 | 0.01 | 26 | 1023.2 |
| 20260502231622 | 59 | 109 | 0.0 | 3.5 | 0.00 | 0.11 | 0.01 | 27 | 1023.2 |
| 20260502231134 | 59 | 20 | 0.9 | 6.1 | 0.00 | 0.11 | 0.01 | 26 | 1023.1 |
| 20260502230628 | 59 | 39 | 2.6 | 6.1 | 0.00 | 0.11 | 0.01 | 26 | 1023.2 |
| 20260502230121 | 59 | 70 | 3.5 | 5.2 | 0.00 | 0.14 | 0.01 | 25 | 1023.2 |
| 20260502225637 | 59 | 47 | 1.7 | 5.2 | 0.00 | 0.14 | 0.01 | 25 | 1023.2 |
| 20260502225133 | 60 | 257 | 2.6 | 5.2 | 0.00 | 0.14 | 0.01 | 25 | 1023.2 |
| 20260502224633 | 59 | 221 | 3.5 | 4.3 | 0.00 | 0.14 | 0.01 | 25 | 1023.4 |
| 20260502224148 | 59 | 5 | 0.9 | 2.6 | 0.00 | 0.14 | 0.01 | 25 | 1023.3 |
| 20260502223623 | 59 | 181 | 1.7 | 4.3 | 0.00 | 0.14 | 0.01 | 26 | 1023.4 |
| 20260502223159 | 59 | 128 | 1.7 | 4.3 | 0.00 | 0.14 | 0.01 | 26 | 1023.4 |
| 20260502222633 | 60 | 46 | 2.6 | 6.1 | 0.00 | 0.14 | 0.01 | 25 | 1023.4 |
| 20260502222129 | 60 | 300 | 2.6 | 8.7 | 0.00 | 0.14 | 0.01 | 23 | 1023.6 |
| 20260502221624 | 61 | 136 | 2.6 | 8.7 | 0.00 | 0.14 | 0.01 | 24 | 1023.5 |
| 20260502221159 | 60 | 248 | 0.9 | 7.0 | 0.00 | 0.14 | 0.01 | 25 | 1023.6 |
| 20260502220655 | 61 | 150 | 2.6 | 7.0 | 0.00 | 0.14 | 0.01 | 24 | 1023.7 |
| 20260502220130 | 61 | 167 | 1.7 | 3.5 | 0.00 | 0.14 | 0.01 | 23 | 1023.8 |
| 20260502215629 | 61 | 136 | 1.7 | 7.0 | 0.00 | 0.16 | 0.01 | 23 | 1023.9 |
| 20260502215125 | 61 | 165 | 1.7 | 7.0 | 0.00 | 0.16 | 0.01 | 25 | 1024.1 |
| 20260502214640 | 61 | 127 | 1.7 | 5.2 | 0.00 | 0.16 | 0.01 | 24 | 1024.1 |
| 20260502214135 | 61 | 190 | 1.7 | 8.7 | 0.00 | 0.16 | 0.01 | 23 | 1024.1 |
| 20260502213631 | 61 | 45 | 1.7 | 9.6 | 0.00 | 0.16 | 0.01 | 23 | 1024.3 |
| 20260502213126 | 61 | 261 | 1.7 | 5.2 | 0.00 | 0.16 | 0.01 | 23 | 1024.4 |
| 20260502212621 | 60 | 139 | 2.6 | 6.1 | 0.00 | 0.16 | 0.01 | 24 | 1024.5 |
| 20260502212140 | 60 | 171 | 3.5 | 6.1 | 0.00 | 0.16 | 0.01 | 25 | 1024.6 |
| 20260502211636 | 60 | 159 | 1.7 | 3.5 | 0.00 | 0.16 | 0.01 | 25 | 1024.6 |
| 20260502211132 | 60 | 36 | 2.6 | 4.3 | 0.00 | 0.16 | 0.01 | 23 | 1024.7 |
| 20260502210626 | 60 | 146 | 0.9 | 4.3 | 0.00 | 0.16 | 0.01 | 26 | 1024.8 |
| 20260502210122 | 59 | 165 | 2.6 | 5.2 | 0.00 | 0.30 | 0.01 | 25 | 1024.9 |
| 20260502205637 | 59 | 355 | 1.7 | 3.5 | 0.00 | 0.30 | 0.01 | 24 | 1025.0 |
| 20260502205133 | 59 | 44 | 1.7 | 5.2 | 0.00 | 0.30 | 0.01 | 25 | 1024.9 |
| 20260502204629 | 60 | 38 | 1.7 | 6.1 | 0.00 | 0.30 | 0.01 | 24 | 1025.0 |
| 20260502204128 | 60 | 147 | 3.5 | 7.0 | 0.00 | 0.30 | 0.01 | 23 | 1025.0 |
| 20260502203624 | 59 | 142 | 3.5 | 7.0 | 0.00 | 0.30 | 0.01 | 23 | 1025.2 |
| 20260502203139 | 59 | 40 | 3.5 | 7.0 | 0.00 | 0.30 | 0.01 | 24 | 1025.2 |
| 20260502202656 | 59 | 130 | 2.6 | 7.0 | 0.00 | 0.30 | 0.01 | 26 | 1025.2 |
| 20260502202130 | 59 | 108 | 1.7 | 6.1 | 0.00 | 0.30 | 0.01 | 23 | 1025.2 |
| 20260502201625 | 58 | 226 | 1.7 | 9.6 | 0.00 | 0.30 | 0.01 | 22 | 1025.3 |
| 20260502201121 | 58 | 78 | 3.5 | 9.6 | 0.00 | 0.30 | 0.01 | 23 | 1025.3 |
| 20260502200621 | 58 | 19 | 2.6 | 6.1 | 0.00 | 0.30 | 0.01 | 25 | 1025.3 |
| 20260502200135 | 58 | 127 | 2.6 | 4.3 | 0.00 | 0.30 | 0.01 | 28 | 1025.3 |
| 20260502195630 | 57 | 49 | 2.6 | 4.3 | 0.00 | 0.34 | 0.01 | 28 | 1025.3 |
| 20260502195126 | 57 | 49 | 1.7 | 5.2 | 0.00 | 0.34 | 0.01 | 26 | 1025.5 |
| 20260502194642 | 58 | 50 | 1.7 | 5.2 | 0.00 | 0.34 | 0.01 | 28 | 1025.6 |
| 20260502194137 | 57 | 150 | 2.6 | 4.3 | 0.00 | 0.34 | 0.01 | 29 | 1025.6 |
| 20260502193632 | 57 | 63 | 2.6 | 4.3 | 0.00 | 0.34 | 0.01 | 31 | 1025.6 |
| 20260502193128 | 57 | 31 | 1.7 | 3.5 | 0.00 | 0.34 | 0.01 | 29 | 1025.7 |
| 20260502192624 | 57 | 90 | 1.7 | 6.1 | 0.00 | 0.34 | 0.01 | 27 | 1025.7 |
| 20260502192124 | 57 | 299 | 1.7 | 6.1 | 0.00 | 0.34 | 0.01 | 28 | 1025.8 |
| 20260502191638 | 58 | 311 | 1.7 | 5.2 | 0.00 | 0.34 | 0.01 | 27 | 1025.8 |
| 20260502191155 | 57 | 120 | 0.9 | 6.1 | 0.00 | 0.34 | 0.01 | 30 | 1025.8 |
| 20260502190630 | 57 | 145 | 2.6 | 7.0 | 0.00 | 0.34 | 0.01 | 28 | 1025.9 |
| 20260502190126 | 56 | 142 | 2.6 | 4.3 | 0.00 | 0.34 | 0.01 | 30 | 1026.0 |
| 20260502185701 | 56 | 44 | 1.7 | 4.3 | 0.00 | 0.34 | 0.01 | 29 | 1026.0 |
| 20260502185135 | 56 | 281 | 1.7 | 4.3 | 0.00 | 0.34 | 0.01 | 29 | 1026.2 |
| 20260502184630 | 56 | 213 | 1.7 | 3.5 | 0.00 | 0.34 | 0.01 | 27 | 1026.2 |
| 20260502184126 | 56 | 244 | 1.7 | 4.3 | 0.00 | 0.34 | 0.01 | 30 | 1026.2 |
| 20260502183625 | 55 | 58 | 1.7 | 4.3 | 0.00 | 0.34 | 0.01 | 29 | 1026.4 |
| 20260502183139 | 55 | 254 | 0.9 | 6.1 | 0.00 | 0.34 | 0.01 | 32 | 1026.4 |
| 20260502182653 | 55 | 227 | 2.6 | 7.8 | 0.00 | 0.34 | 0.01 | 32 | 1026.6 |
| 20260502182126 | 54 | 281 | 1.7 | 7.8 | 0.00 | 0.34 | 0.01 | 36 | 1026.6 |
| 20260502181700 | 53 | 115 | 2.6 | 7.0 | 0.00 | 0.34 | 0.01 | 39 | 1026.5 |
| 20260502181155 | 52 | 5 | 1.7 | 5.2 | 0.00 | 0.34 | 0.01 | 35 | 1026.7 |
| 20260502180629 | 53 | 26 | 2.6 | 5.2 | 0.00 | 0.34 | 0.01 | 35 | 1026.8 |
| 20260502180123 | 53 | 78 | 1.7 | 5.2 | 0.00 | 0.34 | 0.01 | 33 | 1026.8 |
| 20260502170126 | 51 | 247 | 1.7 | 5.2 | 0.01 | 0.34 | 0.01 | 48 | 1026.9 |
| 20260502164145 | 51 | 116 | 1.7 | 3.5 | 0.00 | 0.34 | 0.00 | 53 | 1026.9 |
| 20260502163640 | 51 | 72 | 1.7 | 3.5 | 0.00 | 0.34 | 0.00 | 55 | 1026.9 |
| 20260502163154 | 51 | 120 | 0.9 | 3.5 | 0.00 | 0.34 | 0.00 | 57 | 1026.8 |
| 20260502162628 | 50 | 156 | 1.7 | 6.1 | 0.00 | 0.34 | 0.00 | 61 | 1026.8 |
| 20260502162125 | 50 | 113 | 2.6 | 7.0 | 0.00 | 0.34 | 0.00 | 58 | 1026.7 |
| 20260502161638 | 49 | 156 | 3.5 | 7.0 | 0.00 | 0.34 | 0.00 | 59 | 1026.7 |
| 20260502161132 | 48 | 84 | 2.6 | 6.1 | 0.00 | 0.34 | 0.00 | 58 | 1026.8 |
| 20260502160626 | 48 | 28 | 1.7 | 4.3 | 0.00 | 0.34 | 0.00 | 61 | 1026.7 |
| 20260502160120 | 48 | 130 | 1.7 | 6.1 | 0.00 | 0.34 | 0.00 | 70 | 1026.7 |
| 20260502152133 | 45 | 40 | 1.7 | 3.5 | 0.00 | 0.34 | 0.00 | 83 | 1026.8 |
| 20260502151624 | 44 | 151 | 1.7 | 4.3 | 0.00 | 0.34 | 0.00 | 82 | 1026.9 |
| 20260502151159 | 44 | 138 | 0.9 | 3.5 | 0.00 | 0.34 | 0.00 | 84 | 1026.9 |
| 20260502150626 | 43 | 91 | 0.0 | 1.7 | 0.00 | 0.34 | 0.00 | 86 | 1027.0 |
| 20260502150139 | 42 | 34 | 0.0 | 3.5 | 0.00 | 0.34 | 0.00 | 85 | 1026.9 |
| 20260502130638 | 32 | 355 | 0.0 | 0.0 | 0.00 | 0.34 | 0.00 | 95 | 1026.3 |
| 20260502130134 | 32 | 355 | 0.0 | 0.0 | 0.00 | 0.34 | 0.00 | 95 | 1026.4 |
| 20260502123631 | 32 | 355 | 0.0 | 0.0 | 0.00 | 0.34 | 0.00 | 94 | 1026.1 |
| 20260502123146 | 32 | 355 | 0.0 | 0.0 | 0.00 | 0.34 | 0.00 | 94 | 1026.0 |
| 20260502122620 | 32 | 355 | 0.0 | 0.0 | 0.00 | 0.34 | 0.00 | 94 | 1026.0 |
| 20260502122136 | 32 | 355 | 0.0 | 0.0 | 0.00 | 0.34 | 0.00 | 94 | 1026.1 |
| 20260502121651 | 32 | 355 | 0.0 | 0.0 | 0.00 | 0.34 | 0.00 | 94 | 1026.0 |
| 20260502121124 | 31 | 355 | 0.0 | 0.0 | 0.00 | 0.34 | 0.00 | 94 | 1026.1 |
| 20260502120640 | 31 | 355 | 0.0 | 0.0 | 0.00 | 0.34 | 0.00 | 94 | 1026.1 |
| 20260502120139 | 31 | 355 | 0.0 | 0.0 | 0.00 | 0.34 | 0.00 | 94 | 1026.0 |
| 20260502115634 | 32 | 355 | 0.0 | 0.0 | 0.00 | 0.34 | 0.00 | 94 | 1026.0 |
| 20260502115129 | 32 | 355 | 0.0 | 0.0 | 0.00 | 0.34 | 0.00 | 94 | 1026.0 |
| 20260502114623 | 32 | 355 | 0.0 | 0.0 | 0.00 | 0.34 | 0.00 | 94 | 1026.0 |
| 20260502114140 | 32 | 355 | 0.0 | 0.0 | 0.00 | 0.34 | 0.00 | 94 | 1025.9 |
| 20260502113634 | 32 | 355 | 0.0 | 0.0 | 0.00 | 0.34 | 0.00 | 94 | 1025.9 |
| 20260502113130 | 32 | 355 | 0.0 | 0.0 | 0.00 | 0.34 | 0.00 | 94 | 1026.0 |
| 20260502112645 | 32 | 355 | 0.0 | 0.0 | 0.00 | 0.34 | 0.00 | 94 | 1025.9 |
| 20260502112144 | 32 | 355 | 0.0 | 0.0 | 0.00 | 0.34 | 0.00 | 94 | 1026.0 |
| 20260502111638 | 32 | 355 | 0.0 | 0.0 | 0.00 | 0.34 | 0.00 | 94 | 1025.9 |
| 20260502111131 | 32 | 355 | 0.0 | 0.0 | 0.00 | 0.34 | 0.00 | 94 | 1026.0 |
| 20260502110627 | 33 | 355 | 0.0 | 0.0 | 0.00 | 0.34 | 0.00 | 94 | 1026.0 |
| 20260502110123 | 33 | 355 | 0.0 | 0.0 | 0.00 | 0.34 | 0.00 | 94 | 1025.9 |
| 20260502105657 | 33 | 355 | 0.0 | 0.0 | 0.00 | 0.34 | 0.00 | 94 | 1025.9 |
| 20260502105153 | 33 | 355 | 0.0 | 0.0 | 0.00 | 0.34 | 0.00 | 93 | 1026.0 |
| 20260502104628 | 33 | 355 | 0.0 | 0.0 | 0.00 | 0.34 | 0.00 | 94 | 1026.0 |
| 20260502104144 | 33 | 355 | 0.0 | 0.0 | 0.00 | 0.34 | 0.00 | 94 | 1026.0 |
| 20260502103658 | 33 | 355 | 0.0 | 0.0 | 0.00 | 0.34 | 0.00 | 94 | 1026.0 |
| 20260502103132 | 33 | 355 | 0.0 | 0.0 | 0.00 | 0.34 | 0.00 | 94 | 1025.9 |
| 20260502102647 | 33 | 355 | 0.0 | 0.0 | 0.00 | 0.34 | 0.00 | 94 | 1025.8 |
| 20260502102126 | 33 | 355 | 0.0 | 0.0 | 0.00 | 0.34 | 0.00 | 94 | 1025.8 |
| 20260502101621 | 33 | 355 | 0.0 | 0.0 | 0.00 | 0.34 | 0.00 | 93 | 1025.7 |
| 20260502101137 | 33 | 355 | 0.0 | 0.0 | 0.00 | 0.34 | 0.00 | 93 | 1025.7 |
| 20260502100633 | 34 | 355 | 0.0 | 0.0 | 0.00 | 0.34 | 0.00 | 93 | 1025.6 |
| 20260502100127 | 34 | 355 | 0.0 | 0.0 | 0.00 | 0.34 | 0.00 | 93 | 1025.5 |
| 20260502091124 | 35 | 355 | 0.0 | 0.0 | 0.00 | 0.34 | 0.00 | 94 | 1025.5 |
| 20260502090640 | 36 | 355 | 0.0 | 0.0 | 0.00 | 0.34 | 0.00 | 94 | 1025.5 |
| 20260502090153 | 35 | 355 | 0.0 | 0.0 | 0.00 | 0.34 | 0.00 | 94 | 1025.5 |
| 20260502071127 | 36 | 355 | 0.0 | 0.0 | 0.00 | 0.34 | 0.00 | 94 | 1025.9 |
| 20260502070640 | 36 | 355 | 0.0 | 0.0 | 0.00 | 0.34 | 0.00 | 94 | 1025.9 |
| 20260502070136 | 36 | 355 | 0.0 | 0.0 | 0.00 | 0.34 | 0.00 | 94 | 1025.9 |
| 20260502065631 | 36 | 355 | 0.0 | 0.0 | 0.00 | 0.35 | 0.00 | 94 | 1025.9 |
| 20260502065126 | 36 | 355 | 0.0 | 0.0 | 0.00 | 0.35 | 0.00 | 94 | 1025.9 |
| 20260502064625 | 36 | 355 | 0.0 | 0.0 | 0.00 | 0.35 | 0.00 | 94 | 1025.8 |
| 20260502064141 | 36 | 355 | 0.0 | 0.0 | 0.00 | 0.35 | 0.00 | 94 | 1025.8 |
| 20260502063654 | 36 | 355 | 0.0 | 0.0 | 0.00 | 0.35 | 0.00 | 94 | 1025.7 |
| 20260502063129 | 35 | 355 | 0.0 | 0.9 | 0.00 | 0.35 | 0.00 | 94 | 1025.7 |
| 20260502062643 | 35 | 355 | 0.0 | 0.9 | 0.00 | 0.35 | 0.00 | 93 | 1025.6 |
| 20260502062138 | 35 | 355 | 0.0 | 0.0 | 0.00 | 0.35 | 0.00 | 93 | 1025.6 |
| 20260502061633 | 36 | 355 | 0.0 | 0.0 | 0.00 | 0.35 | 0.00 | 93 | 1025.6 |
| 20260502061128 | 36 | 355 | 0.0 | 0.0 | 0.00 | 0.35 | 0.00 | 93 | 1025.6 |
| 20260502060625 | 36 | 355 | 0.0 | 0.0 | 0.00 | 0.35 | 0.00 | 93 | 1025.5 |
| 20260502060123 | 36 | 316 | 0.0 | 0.0 | 0.00 | 0.35 | 0.35 | 93 | 1025.3 |
| 20260502055637 | 36 | 316 | 0.0 | 0.0 | 0.00 | 0.35 | 0.35 | 93 | 1025.3 |
| 20260502055132 | 36 | 300 | 0.0 | 0.0 | 0.00 | 0.35 | 0.35 | 93 | 1025.2 |
| 20260502054627 | 36 | 300 | 0.0 | 0.0 | 0.00 | 0.35 | 0.35 | 93 | 1025.2 |
| 20260502054122 | 36 | 300 | 0.0 | 0.0 | 0.00 | 0.35 | 0.35 | 93 | 1025.1 |
| 20260502053659 | 36 | 300 | 0.0 | 0.0 | 0.00 | 0.35 | 0.35 | 93 | 1025.0 |
| 20260502053133 | 36 | 300 | 0.0 | 0.0 | 0.00 | 0.35 | 0.35 | 93 | 1025.0 |
| 20260502052628 | 36 | 300 | 0.0 | 0.0 | 0.00 | 0.35 | 0.35 | 93 | 1024.9 |
| 20260502052128 | 36 | 300 | 0.0 | 0.9 | 0.00 | 0.35 | 0.35 | 93 | 1025.0 |
| 20260502051640 | 36 | 300 | 0.0 | 0.0 | 0.00 | 0.35 | 0.35 | 93 | 1025.0 |
| 20260502051136 | 37 | 300 | 0.0 | 0.0 | 0.00 | 0.35 | 0.35 | 93 | 1024.9 |
| 20260502050651 | 37 | 300 | 0.0 | 0.0 | 0.00 | 0.35 | 0.35 | 93 | 1024.8 |
| 20260502050124 | 37 | 300 | 0.0 | 0.0 | 0.00 | 0.35 | 0.35 | 93 | 1025.0 |
| 20260502045620 | 37 | 300 | 0.0 | 0.0 | 0.00 | 0.35 | 0.35 | 92 | 1024.9 |
| 20260502045135 | 37 | 300 | 0.0 | 0.0 | 0.00 | 0.35 | 0.35 | 93 | 1024.8 |
| 20260502044632 | 37 | 300 | 0.0 | 0.0 | 0.00 | 0.35 | 0.35 | 92 | 1025.0 |
| 20260502044132 | 37 | 300 | 0.0 | 0.0 | 0.00 | 0.35 | 0.35 | 92 | 1024.8 |
| 20260502043647 | 38 | 300 | 0.0 | 0.0 | 0.00 | 0.35 | 0.35 | 92 | 1024.9 |
| 20260502043140 | 38 | 300 | 0.0 | 0.0 | 0.00 | 0.35 | 0.35 | 92 | 1024.9 |
| 20260502042635 | 38 | 300 | 0.0 | 0.0 | 0.00 | 0.35 | 0.35 | 92 | 1024.8 |
| 20260502042131 | 38 | 300 | 0.0 | 0.0 | 0.00 | 0.35 | 0.35 | 92 | 1024.8 |
| 20260502041627 | 38 | 300 | 0.0 | 0.0 | 0.00 | 0.35 | 0.35 | 93 | 1024.8 |
| 20260502041122 | 38 | 300 | 0.0 | 0.0 | 0.00 | 0.35 | 0.35 | 93 | 1024.8 |
| 20260502040636 | 38 | 300 | 0.0 | 0.0 | 0.00 | 0.35 | 0.35 | 93 | 1024.7 |
| 20260502040133 | 38 | 300 | 0.0 | 0.0 | 0.00 | 0.35 | 0.35 | 92 | 1024.8 |
| 20260502035632 | 38 | 300 | 0.0 | 0.0 | 0.00 | 0.35 | 0.35 | 93 | 1024.8 |
| 20260502035148 | 38 | 300 | 0.0 | 0.0 | 0.00 | 0.35 | 0.35 | 93 | 1024.8 |
| 20260502034623 | 38 | 300 | 0.0 | 0.0 | 0.00 | 0.35 | 0.35 | 93 | 1024.8 |
| 20260502034138 | 38 | 300 | 0.0 | 0.0 | 0.00 | 0.35 | 0.35 | 93 | 1024.8 |
| 20260502033633 | 38 | 300 | 0.0 | 0.0 | 0.00 | 0.35 | 0.35 | 92 | 1024.7 |
| 20260502033127 | 38 | 300 | 0.0 | 0.0 | 0.00 | 0.35 | 0.35 | 92 | 1024.6 |
| 20260502032622 | 38 | 300 | 0.0 | 0.0 | 0.00 | 0.35 | 0.35 | 92 | 1024.6 |
| 20260502032121 | 38 | 300 | 0.0 | 0.0 | 0.00 | 0.35 | 0.35 | 92 | 1024.4 |
| 20260502031634 | 38 | 300 | 0.0 | 0.0 | 0.00 | 0.35 | 0.35 | 93 | 1024.3 |
| 20260502031148 | 38 | 300 | 0.0 | 1.7 | 0.00 | 0.35 | 0.35 | 93 | 1024.4 |
| 20260502030700 | 38 | 300 | 0.0 | 1.7 | 0.00 | 0.35 | 0.35 | 93 | 1024.3 |
| 20260502030132 | 38 | 311 | 0.0 | 0.0 | 0.00 | 0.35 | 0.35 | 93 | 1024.3 |
| 20260502025625 | 38 | 311 | 0.0 | 0.0 | 0.00 | 0.35 | 0.35 | 93 | 1024.1 |
| 20260502025159 | 38 | 311 | 0.0 | 0.0 | 0.00 | 0.35 | 0.35 | 93 | 1024.2 |
| 20260502024632 | 38 | 311 | 0.0 | 0.0 | 0.00 | 0.35 | 0.35 | 93 | 1024.1 |
| 20260502024124 | 38 | 311 | 0.0 | 1.7 | 0.00 | 0.35 | 0.35 | 93 | 1023.9 |
| 20260502023638 | 38 | 311 | 0.0 | 1.7 | 0.00 | 0.35 | 0.35 | 93 | 1023.8 |
| 20260502023136 | 38 | 304 | 0.0 | 0.0 | 0.00 | 0.35 | 0.35 | 93 | 1023.7 |
| 20260502022629 | 38 | 304 | 0.0 | 0.0 | 0.01 | 0.35 | 0.35 | 93 | 1023.4 |
| 20260502022123 | 38 | 304 | 0.0 | 0.0 | 0.01 | 0.35 | 0.35 | 93 | 1023.3 |
| 20260502021636 | 38 | 304 | 0.0 | 0.0 | 0.01 | 0.35 | 0.35 | 93 | 1023.4 |